COSMOS 2251 DEB, 33945

Orbit data source: Space-Track

COSMOS 2251 DEB, 33945 is space debris in LEO originally from a launch on Wed, 16 Jun 1993 UTC launched from the Plesetsk Missile And Space Complex (PKMTR). The debris from Iridium 33, an American commercial communications satellite, has been tracked extensively since its accidental collision with the defunct Russian satellite Cosmos 2251 in 2009. This event, occurring at high speed in low Earth orbit (LEO), generated thousands of pieces of space debris, significantly increasing the risk of further collisions. The Iridium 33 debris cloud has impacted space traffic management and orbital debris mitigation strategies, making it a subject of ongoing study in space situational awareness.

Loading next visibility...
Identifier
33945, 1993-036FA
Orbit
LEO
Country
Flag of CISCIS
Related business
Manufacturer
Unknown
Mission
Spacecraft
Bus & Motor
Unknown
Mass
Unknown
Launch date (UTC)
1993-06-16 (33 years ago)
Launch vehicle
Unknown
Launch site
Plesetsk Missile And Space Complex (PKMTR)
Object type
Payload
Rocket body
Debris
Shape & HBR
Unknown shape, 0.3 m
Radar Cross Section
Small (<0.1 m²)

Expand to show TLE details & history
Last TLE update: 4 hours ago

TLE from 4 hours ago
0 COSMOS 2251 DEB
1 33945U 93036FA  26121.52109983  .00000292  00000-0  11202-3 0  9996
2 33945  74.0308  50.1154 0021750 107.1937 253.1598 14.34711871900208
Epoch: 2026-05-01T12:30Z
TLE epoch observation values (Epoch: 2026-05-01T12:30:23.025Z)
Latitude
-0.00005°
Longitude
3.06728°
Altitude
783.173 km
Speed
7.46 km/s
True Right ascension
03h 20m 27s
True Declination
0° 00' 00"
Sunlit
Object was in daylight at epoch
Visualization orbit readout
Latitude
Unknown
Longitude
Unknown
Altitude
Unknown
Speed
Unknown
Apparent Right ascension
Unknown
Apparent Declination
Unknown
Sunlit
N/A
Visualization observer readout
Local Sidereal Time
00:12:18
Azimuth
Unknown
Elevation
Unknown
Doppler factor
Unknown
Orbital elements
Apogee altitude
789.205 km
Perigee altitude
758.095 km
Semi-major axis
7,151.787 km
Eccentricity
0.00218
Inclination
74.0308°
RAAN
50.1154°
Arg. of periapsis
107.1937°
True anomaly
252.92144°
Mean anomaly
253.1598°
Eccentric anomaly
253.0406°
Mean motion
3.58857 °/min
Orbital period
100.32 mins
BSTAR
0.00011202
Loading maneuver chart data...
Computing Atmospheric mass density...

Documentation

Showing up to 5 results
|